Regional Weather Roundup
Issued by NWS

Home | Current Version | Previous Version | Graphics & Text | Print | Product List | Glossary On
Versions: 1 2 3 4 5 6 7 8 9 10 11 12 13 14 15 16 17 18 19 20 21 22 23 24 25 26 27 28 29 30 31 32 33 34 35 36 37 38 39 40 41 42 43 44 45 46 47 48 49 50
000
ASUS43 KFSD 251802
RWRSD

WEATHER ROUNDUP FOR SOUTH DAKOTA
NATIONAL WEATHER SERVICE SIOUX FALLS SD
100 PM CDT MON SEP 25 2017

NOTE: "FAIR" INDICATES FEW OR NO CLOUDS BELOW 12,000 FEET WITH NO
SIGNIFICANT WEATHER AND/OR OBSTRUCTIONS TO VISIBILITY.


SDZ001>005-009-010-012>017-251900-
NORTHWEST AND NORTH CENTRAL SOUTH DAKOTA

CITY           SKY/WX    TMP DP  RH WIND       PRES   REMARKS
FAITH            N/A     48  41  76 VRB5      30.14F
MOBRIDGE       CLOUDY    53  44  71 NE7       30.12R
$$

SDZ012>016-024>037-041>051-057-063-072>074-251900-
SOUTHWEST AND SOUTH CENTRAL SOUTH DAKOTA

CITY           SKY/WX    TMP DP  RH WIND       PRES   REMARKS
RAPID CTY ARPT CLOUDY    48  43  81 VRB3      30.13F
PIERRE         CLOUDY    52  42  69 N7        30.11F
CUSTER         CLOUDY    42  38  85 SW7       30.11F
ELLSWORTH AFB  CLOUDY    48  48 100 SE7       30.12
PHILIP         CLOUDY    52  43  71 N7        30.13F
PINE RIDGE     CLOUDY    50  42  74 VRB6      30.12F
SPEARFISH      PTSUNNY   45  43  93 NE5       30.13S FOG
WINNER         CLOUDY    52  47  83 N12       30.10F
$$

SDZ004>011-016>023-039-040-251900-
NORTHEAST SOUTH DAKOTA

CITY           SKY/WX    TMP DP  RH WIND       PRES   REMARKS
ABERDEEN       CLOUDY    53  47  79 N10       30.11R
WATERTOWN      CLOUDY    52  48  86 NE12G20   30.05F
BROOKINGS      CLOUDY    52  48  86 NE10      30.06F
$$

SDZ017-020-022-023-036>040-048>070-251900-
SOUTHEAST SOUTH DAKOTA

CITY           SKY/WX    TMP DP  RH WIND       PRES   REMARKS
SIOUX FALLS    CLOUDY    55  53  93 N14       30.04S
HURON          CLOUDY    53  48  83 N10       30.09S
CHAMBERLAIN    CLOUDY    53  48  84 N9        30.10F
MITCHELL       CLOUDY    54  50  86 N9        30.08S
YANKTON        HVY RAIN  53  52  96 N9        30.04S
$$

ABBREVIATIONS USED IN REMARKS
   TC - TEMPERATURE IN CELSIUS
  WCI - WIND CHILL INDEX
   HX - HEAT INDEX
  VSB - VISIBILITY





USA.gov is the U.S. government's official web portal to all federal, state and local government web resources and services.